Weather History for Billings, MT

Change the Weather History Date:

Monday, September 24, 2012

  Actual Average Record
Temperature  
Mean Temperature 65 °F 56 °F  
Max Temperature 79 °F 69 °F 90 °F (1938)
Min Temperature 51 °F 44 °F 22 °F (1984)
Degree Days  
Heating Degree Days 0 9  
Month to date heating degree days 50 129  
Since 1 July heating degree days 57 166  
Cooling Degree Days 0 1  
Month to date cooling degree days 59 48  
Year to date cooling degree days 952 630  
Growing Degree Days 15 (Base 50)    
Moisture  
Dew Point 33 °F    
Average Humidity 29    
Maximum Humidity 50    
Minimum Humidity 11    
Precipitation  
Precipitation 0.00 in 0.05 in 0.43 in (1958)
Month to date precipitation T 1.02  
Year to date precipitation 5.08 11.07  
Snow  
Snow 0.00 in 0.10 in 0.70 in (1984)
Month to date snowfall 0.0 0.7  
Since 1 July snowfall 0.0 0.7  
Since 1 September snowfall 0.0 0.7  
Snow Depth 0.00 in    
Sea Level Pressure  
Sea Level Pressure 29.93 in    
Wind  
Wind Speed 5 mph (SSW)    
Max Wind Speed 12 mph    
Max Gust Speed 14 mph    
Visibility 10 miles    
Events      
T = Trace of Precipitation, MM = Missing Value Source: NWS Daily Summary

Daily Weather History Graph

Daily Weather History Graph

Search for Another Location

Airport:

Trip Planner

Search our weather history database for the weather conditions in past years. The results will help you decide how hot, cold, wet, or windy it might be!

Date:

Astronomy

Sep. 24, 2012 Rise Set
Actual Time 7:04 AM MDT 7:06 PM MDT
Civil Twilight 6:34 AM MDT 7:36 PM MDT
Nautical Twilight 5:59 AM MDT 8:11 PM MDT
Astronomical Twilight 5:24 AM MDT 8:46 PM MDT
Moon 4:08 PM MDT (9/24) 1:08 AM MDT (9/24)
Length of Visible Light 13h 01m
Length of Day
12h 02m
Waxing Gibbous, 71% of the Moon is Illuminated
Sep 24
Waxing Gibbous
Sep 29
Full
Oct 8
Last Quarter
Oct 15
New
Oct 21
First Quarter

Hourly Weather History & Observations

Time (MDT) Temp. Dew Point Humidity Pressure Visibility Wind Dir Wind Speed Gust Speed Precip Events Conditions
12:53 AM 60.1 °F 30.0 °F 32% 29.99 in 10.0 mi North 5.8 mph - N/A   Clear
1:53 AM 55.9 °F 30.0 °F 37% 30.00 in 10.0 mi Calm Calm - N/A   Clear
2:53 AM 55.0 °F 30.0 °F 38% 29.99 in 10.0 mi Calm Calm - N/A   Clear
3:53 AM 53.1 °F 35.1 °F 50% 29.98 in 10.0 mi SW 5.8 mph - N/A   Clear
4:53 AM 55.9 °F 30.9 °F 39% 29.97 in 10.0 mi West 6.9 mph - N/A   Clear
5:53 AM 54.0 °F 32.0 °F 43% 29.97 in 10.0 mi WSW 6.9 mph - N/A   Clear
6:53 AM 53.1 °F 33.1 °F 47% 29.97 in 10.0 mi SW 9.2 mph - N/A   Clear
7:53 AM 54.0 °F 33.1 °F 45% 29.99 in 10.0 mi SW 9.2 mph - N/A   Partly Cloudy
8:53 AM 55.9 °F 34.0 °F 44% 29.99 in 10.0 mi SW 9.2 mph - N/A   Partly Cloudy
9:53 AM 57.9 °F 36.0 °F 44% 29.99 in 10.0 mi SSW 9.2 mph - N/A   Clear
10:53 AM 62.6 °F 37.4 °F 39% 30.04 in 10.0 mi SSW 6.9 mph - N/A   Partly Cloudy
11:53 AM 68.0 °F 37.0 °F 32% 29.96 in 10.0 mi SSW 4.6 mph - N/A   Partly Cloudy
12:53 PM 73.0 °F 36.0 °F 26% 29.94 in 10.0 mi SE 4.6 mph - N/A   Partly Cloudy
1:53 PM 75.9 °F 33.1 °F 21% 29.91 in 10.0 mi NE 8.1 mph - N/A   Partly Cloudy
2:53 PM 78.1 °F 33.1 °F 19% 29.88 in 10.0 mi Variable 5.8 mph - N/A   Clear
3:53 PM 78.1 °F 33.1 °F 19% 29.87 in 10.0 mi ENE 6.9 mph - N/A   Clear
4:53 PM 78.1 °F 33.1 °F 19% 29.85 in 10.0 mi East 5.8 mph - N/A   Clear
5:53 PM 77.0 °F 32.0 °F 19% 29.86 in 10.0 mi ENE 6.9 mph - N/A   Clear
6:53 PM 73.9 °F 33.1 °F 22% 29.86 in 10.0 mi NE 3.5 mph - N/A   Partly Cloudy
7:53 PM 71.1 °F 32.0 °F 24% 29.87 in 10.0 mi NE 5.8 mph - N/A   Partly Cloudy
8:53 PM 66.9 °F 30.9 °F 26% 29.88 in 10.0 mi Calm Calm - N/A   Partly Cloudy
9:53 PM 68.0 °F 30.0 °F 24% 29.88 in 10.0 mi Calm Calm - N/A   Scattered Clouds
10:53 PM 63.0 °F 30.0 °F 29% 29.88 in 10.0 mi Calm Calm - N/A   Clear
11:53 PM 60.1 °F 28.9 °F 31% 29.87 in 10.0 mi NNW 3.5 mph - N/A   Clear